Flag for Brazil Weather past 2 weeks in Porto Alegre, Rio Grande do Sul, Brazil

Now
73 °F

Passing clouds.


Feels Like: 70 °F
Forecast: 70 / 82 °F
Wind: 6 mph from West

Location: Porto Alegre Aero-Porto

Current Time: Dec 17, 2014 at 11:09:56 PM

Latest Report: Dec 17, 2014 at 10:00 PM


Visibility: N/A

Pressure: 29.83 "Hg

Humidity: 94%

Dew point: 72 °F

Location of Porto AlegreLocation

Historic Weather in Porto Alegre — Graph

°F

Porto Alegre temperature yesterday

Maximum temperature yesterday: 82 °F (at 2:00 PM)
Minimum temperature yesterday: 66 °F (at 6:00 AM)
Average temperature yesterday: 75 °F

Past Weeks' High & Low Weather Summary

 TemperatureHumidityPressure
High97 °F (Dec 8, 3:00 PM)100% (Dec 3, 5:00 AM)30.12 "Hg (Dec 3, 5:00 AM)
Low37 °F (Dec 11, 12:00 AM)31% (Dec 6, 4:00 PM)29.68 "Hg (Dec 9, 6:00 PM)
Average76 °F74%29.90 "Hg
* Reported Dec 2 9:00 PM — Dec 17 9:00 PM, Porto Alegre, Weather by CustomWeather, © 2014

Note: Actual official high and low records may vary slightly from our data, if they occured in-between our weather recording intervals... More about our weather records

Advertising

Porto Alegre weather history for previous 24 hours

 ConditionsComfort  
Time TempWeatherWind HumidityBarometerVisibility
9:00 PM
Dec 17
73 °FPartly cloudy.9 mph94%29.80 "Hg4 mi
8:00 PM75 °FLight rain. Partly sunny.15 mph89%29.80 "Hg4 mi
7:00 PM79 °FPartly sunny.10 mph79%29.77 "HgN/A
6:00 PM81 °FBroken clouds.12 mph74%29.77 "HgN/A
5:00 PM81 °FSunny.10 mph79%29.77 "Hg10 mi
4:00 PM81 °FPartly sunny.12 mph74%29.80 "HgN/A
3:00 PM82 °FPartly sunny.10 mph70%29.80 "HgN/A
2:00 PM81 °FBroken clouds.13 mph74%29.80 "HgN/A
1:00 PM81 °FBroken clouds.9 mph74%29.83 "HgN/A
12:00 PM81 °FPartly sunny.8 mph74%29.83 "HgN/A
11:00 AM79 °FPassing clouds.7 mph74%29.86 "HgN/A
10:00 AM77 °FSunny.6 mph79%29.83 "Hg10 mi
9:00 AM75 °FSunny.2 mph83%29.86 "Hg10 mi
8:00 AM73 °FSunny.5 mph89%29.83 "Hg10 mi
7:00 AM72 °FSunny.5 mph88%29.83 "Hg10 mi
6:00 AM72 °FPassing clouds.No wind88%29.83 "HgN/A
5:00 AM72 °FPassing clouds.No wind88%29.83 "HgN/A
4:00 AM72 °FClear.3 mph88%29.83 "Hg10 mi
3:00 AM73 °FClear.2 mph83%29.86 "Hg10 mi
2:00 AM72 °FMostly cloudy.5 mph88%29.86 "HgN/A
1:00 AM73 °FMostly cloudy.6 mph83%29.86 "HgN/A
12:00 AM73 °FLight rain. Mostly cloudy.6 mph83%29.92 "HgN/A
11:00 PM
Dec 16
75 °FPassing clouds.2 mph78%29.95 "HgN/A
Weather by CustomWeather, © 2014

See weather overviewHow to use our weather pages